Madison, SD

12:44 AM CDT on July 28, 2017 (GMT -0500)
Madison Municipal

Weather History for KMDS - August, 2013

Change the Weather History Date:

Monday, August 26, 2013

  Actual Average Record
Temperature  
Mean Temperature 80 °F -  
Max Temperature 89 °F 82 °F 89 °F (2013)
Min Temperature 71 °F 58 °F 44 °F (2016)
Cooling Degree Days 15    
Growing Degree Days 30 (Base 50)    
Moisture  
Dew Point 74 °F    
Average Humidity 83    
Maximum Humidity 100    
Minimum Humidity 59    
Precipitation  
Precipitation 0.00 in - - ()
Sea Level Pressure  
Sea Level Pressure 29.94 in    
Wind  
Wind Speed 12 mph (South)    
Max Wind Speed 20 mph    
Max Gust Speed 26 mph    
Visibility 10 miles    
Events      
Averages and records for this station are not official NWS values.
T = Trace of Precipitation, MM = Missing Value Source: NWS Daily Summary

Daily Weather History Graph

Daily Weather History Graph

Search for Another Location

Airport or City:

Trip Planner

Search our weather history database for the weather conditions in past years. The results will help you decide how hot, cold, wet, or windy it might be!

Date:

Astronomy

Aug. 26, 2013 Rise Set
Actual Time 6:45 AM CDT 8:14 PM CDT
Civil Twilight 6:14 AM CDT 8:44 PM CDT
Nautical Twilight 5:38 AM CDT 9:20 PM CDT
Astronomical Twilight 4:59 AM CDT 9:59 PM CDT
Moon 11:10 PM CDT (8/26) 1:02 PM CDT (8/26)
Length of Visible Light 14h 29m
Length of Day
13h 29m
Waning Gibbous, 66% of the Moon is Illuminated
Aug 26
Waning Gibbous
Aug 28
Last Quarter
Sep 5
New
Sep 12
First Quarter
Sep 19
Full

Hourly Weather History & Observations

Time (CDT) Temp. Heat Index Dew Point Humidity Pressure Visibility Wind Dir Wind Speed Gust Speed Precip Events Conditions
12:10 AM 77.0 °F - 75.2 °F 94% 30.00 in 10.0 mi South 11.5 mph 20.7 mph N/A   Clear
12:30 AM 77.0 °F - 75.2 °F 94% 30.00 in 10.0 mi South 12.7 mph - N/A   Clear
12:50 AM 77.0 °F - 75.2 °F 94% 29.99 in 10.0 mi South 12.7 mph - N/A   Clear
1:10 AM 77.0 °F - 75.2 °F 94% 30.00 in 10.0 mi South 10.4 mph - N/A   Clear
1:30 AM 75.2 °F - 75.2 °F 100% 29.99 in 10.0 mi South 11.5 mph - N/A   Clear
1:50 AM 75.2 °F - 75.2 °F 100% 29.99 in 10.0 mi South 10.4 mph - N/A   Clear
2:10 AM 75.2 °F - 75.2 °F 100% 29.99 in 10.0 mi South 11.5 mph - N/A   Clear
2:30 AM 75.2 °F - 73.4 °F 94% 29.99 in 10.0 mi SSW 10.4 mph 16.1 mph N/A   Clear
2:50 AM 75.2 °F - 73.4 °F 94% 29.99 in 10.0 mi South 9.2 mph - N/A   Clear
3:10 AM 75.2 °F - 73.4 °F 94% 29.99 in 10.0 mi South 9.2 mph - N/A   Clear
3:30 AM 75.2 °F - 73.4 °F 94% 29.99 in 10.0 mi South 8.1 mph - N/A   Clear
3:50 AM 73.4 °F - 73.4 °F 100% 29.99 in 10.0 mi South 9.2 mph - N/A   Clear
4:10 AM 73.4 °F - 73.4 °F 100% 29.99 in 10.0 mi South 9.2 mph - N/A   Clear
4:30 AM 73.4 °F - 73.4 °F 100% 29.99 in 10.0 mi South 8.1 mph - N/A   Clear
4:50 AM 73.4 °F - 73.4 °F 100% 29.99 in 10.0 mi SSE 6.9 mph - N/A   Clear
5:10 AM 73.4 °F - 71.6 °F 94% 29.98 in 10.0 mi South 6.9 mph - N/A   Clear
5:30 AM 73.4 °F - 71.6 °F 94% 29.98 in 10.0 mi South 8.1 mph - N/A   Clear
5:50 AM 73.4 °F - 71.6 °F 94% 29.98 in 10.0 mi South 8.1 mph - N/A   Clear
6:10 AM 71.6 °F - 71.6 °F 100% 29.99 in 10.0 mi South 6.9 mph - N/A   Clear
6:30 AM 71.6 °F - 71.6 °F 100% 29.98 in 10.0 mi South 8.1 mph - N/A   Clear
6:50 AM 73.4 °F - 71.6 °F 94% 29.98 in 10.0 mi South 9.2 mph - N/A   Scattered Clouds
7:10 AM 73.4 °F - 71.6 °F 94% 29.99 in 10.0 mi SSW 6.9 mph - N/A   Partly Cloudy
7:30 AM 73.4 °F - 71.6 °F 94% 29.99 in 10.0 mi South 8.1 mph - N/A   Clear
7:50 AM 73.4 °F - 71.6 °F 94% 29.99 in 10.0 mi South 8.1 mph - N/A   Partly Cloudy
8:10 AM 75.2 °F - 71.6 °F 89% 29.98 in 10.0 mi South 10.4 mph - N/A   Partly Cloudy
8:30 AM 77.0 °F - 73.4 °F 89% 29.98 in 10.0 mi South 9.2 mph - N/A   Clear
8:50 AM 77.0 °F - 71.6 °F 83% 29.97 in 10.0 mi SSW 13.8 mph 19.6 mph N/A   Clear
9:10 AM 80.6 °F 83.9 °F 69.8 °F 70% 29.97 in 10.0 mi SSW 15.0 mph 21.9 mph N/A   Clear
9:30 AM 80.6 °F 83.9 °F 69.8 °F 70% 29.97 in 10.0 mi SSW 16.1 mph 21.9 mph N/A   Clear
9:50 AM 80.6 °F 83.2 °F 68.0 °F 65% 29.96 in 10.0 mi SSW 17.3 mph 23.0 mph N/A   Clear
10:10 AM 82.4 °F 86.3 °F 69.8 °F 66% 29.96 in 10.0 mi SSW 13.8 mph 26.5 mph N/A   Clear
10:30 AM 82.4 °F 86.3 °F 69.8 °F 66% 29.96 in 10.0 mi SSW 16.1 mph 21.9 mph N/A   Clear
10:50 AM 82.4 °F 86.3 °F 69.8 °F 66% 29.96 in 10.0 mi SSW 13.8 mph 21.9 mph N/A   Clear
11:10 AM 84.2 °F 89.6 °F 71.6 °F 66% 29.95 in 10.0 mi South 15.0 mph - N/A   Clear
11:30 AM 84.2 °F 89.6 °F 71.6 °F 66% 29.96 in 10.0 mi South 15.0 mph 19.6 mph N/A   Clear
11:50 AM 86.0 °F 91.8 °F 71.6 °F 62% 29.95 in 10.0 mi South 13.8 mph 20.7 mph N/A   Clear
12:10 PM 86.0 °F 91.8 °F 71.6 °F 62% 29.95 in 10.0 mi South 11.5 mph 19.6 mph N/A   Clear
12:30 PM 86.0 °F 93.4 °F 73.4 °F 66% 29.95 in 10.0 mi South 12.7 mph 19.6 mph N/A   Clear
12:50 PM 86.0 °F 91.8 °F 71.6 °F 62% 29.94 in 10.0 mi South 12.7 mph 19.6 mph N/A   Clear
1:10 PM 86.0 °F 93.4 °F 73.4 °F 66% 29.93 in 10.0 mi South 13.8 mph 17.3 mph N/A   Clear
1:30 PM 87.8 °F 95.6 °F 73.4 °F 62% 29.92 in 10.0 mi South 15.0 mph 19.6 mph N/A   Clear
1:50 PM 87.8 °F 95.6 °F 73.4 °F 62% 29.92 in 10.0 mi South 15.0 mph 19.6 mph N/A   Clear
2:10 PM 87.8 °F 95.6 °F 73.4 °F 62% 29.92 in 10.0 mi SSE 16.1 mph 23.0 mph N/A   Clear
2:30 PM 87.8 °F 95.6 °F 73.4 °F 62% 29.92 in 10.0 mi South 18.4 mph 25.3 mph N/A   Clear
2:50 PM 89.6 °F 98.2 °F 73.4 °F 59% 29.91 in 10.0 mi South 17.3 mph 23.0 mph N/A   Clear
3:10 PM 89.6 °F 99.8 °F 75.2 °F 62% 29.91 in 10.0 mi South 18.4 mph 24.2 mph N/A   Clear
3:30 PM 87.8 °F 97.6 °F 75.2 °F 66% 29.90 in 10.0 mi South 15.0 mph 21.9 mph N/A   Clear
3:50 PM 87.8 °F 97.6 °F 75.2 °F 66% 29.90 in 10.0 mi South 16.1 mph 24.2 mph N/A   Clear
4:10 PM 86.0 °F 95.1 °F 75.2 °F 70% 29.89 in 10.0 mi South 16.1 mph 21.9 mph N/A   Clear
4:30 PM 87.8 °F 97.6 °F 75.2 °F 66% 29.89 in 10.0 mi South 19.6 mph 24.2 mph N/A   Clear
4:50 PM 86.0 °F 95.1 °F 75.2 °F 70% 29.89 in 10.0 mi South 15.0 mph 23.0 mph N/A   Clear
5:10 PM 86.0 °F 95.1 °F 75.2 °F 70% 29.89 in 10.0 mi South 18.4 mph 24.2 mph N/A   Clear
5:30 PM 87.8 °F 99.7 °F 77.0 °F 70% 29.88 in 10.0 mi South 18.4 mph 21.9 mph N/A   Clear
5:50 PM 86.0 °F 96.9 °F 77.0 °F 74% 29.88 in 10.0 mi South 15.0 mph 23.0 mph N/A   Clear
6:10 PM 86.0 °F 95.1 °F 75.2 °F 70% 29.88 in 10.0 mi South 15.0 mph 24.2 mph N/A   Clear
6:30 PM 86.0 °F 95.1 °F 75.2 °F 70% 29.88 in 10.0 mi SSW 16.1 mph 24.2 mph N/A   Clear
6:50 PM 84.2 °F 94.1 °F 77.0 °F 79% 29.88 in 10.0 mi South 12.7 mph 19.6 mph N/A   Clear
7:10 PM 84.2 °F 94.1 °F 77.0 °F 79% 29.87 in 10.0 mi South 11.5 mph 20.7 mph N/A   Clear
7:30 PM 82.4 °F 90.9 °F 77.0 °F 84% 29.87 in 10.0 mi South 11.5 mph 19.6 mph N/A   Clear
7:50 PM 82.4 °F 90.9 °F 77.0 °F 84% 29.87 in 10.0 mi South 11.5 mph 17.3 mph N/A   Clear
8:10 PM 80.6 °F 87.1 °F 77.0 °F 89% 29.87 in 10.0 mi South 11.5 mph 16.1 mph N/A   Clear
8:30 PM 80.6 °F 87.1 °F 77.0 °F 89% 29.87 in 10.0 mi South 10.4 mph - N/A   Clear
8:50 PM 80.6 °F 87.1 °F 77.0 °F 89% 29.87 in 10.0 mi South 9.2 mph - N/A   Clear
9:10 PM 78.8 °F - 78.8 °F 100% 29.88 in 10.0 mi South 9.2 mph - N/A   Clear
9:30 PM 80.6 °F 87.1 °F 77.0 °F 89% 29.88 in 10.0 mi South 11.5 mph - N/A   Clear
9:50 PM 78.8 °F - 77.0 °F 94% 29.87 in 10.0 mi South 10.4 mph - N/A   Clear
10:10 PM 78.8 °F - 77.0 °F 94% 29.87 in 10.0 mi South 8.1 mph - N/A   Clear
10:30 PM 77.0 °F - 77.0 °F 100% 29.87 in 10.0 mi South 8.1 mph - N/A   Clear
10:50 PM 77.0 °F - 77.0 °F 100% 29.87 in 10.0 mi South 6.9 mph - N/A   Clear
11:10 PM 77.0 °F - 77.0 °F 100% 29.87 in 10.0 mi South 5.8 mph - N/A   Clear
11:30 PM 77.0 °F - 77.0 °F 100% 29.87 in 10.0 mi South 6.9 mph - N/A   Clear
11:50 PM 75.2 °F - 75.2 °F 100% 29.87 in 10.0 mi South 5.8 mph - N/A   Clear